Weather Roundup
Issued by NWS Corpus Christi, TX

Home | Current Version | Previous Version | Text Only | Print | Product List | Glossary On
Versions: 1 2 3 4 5 6 7 8 9 10 11 12 13 14 15 16 17 18 19 20 21 22 23 24 25 26 27 28 29 30 31 32 33 34 35 36 37 38 39 40 41 42 43 44 45 46 47 48 49 50
000
ASUS44 KCRP 241310
HRRCRP

SOUTH TEXAS REGIONAL WEATHER ROUNDUP
NATIONAL WEATHER SERVICE CORPUS CHRISTI TX
800 AM CDT THU APR 24 2014


TXZ229>244-241400-
...CORPUS CHRISTI AREA OBSERVATIONS...

CITY           SKY/WX    TMP DP  RH WIND       PRES   REMARKS
CORPUS CHRISTI PTSUNNY   73  68  84 SE12      29.82R
NAS CORPUS CHR PTSUNNY   74  69  85 SE13G21   29.82R
ROCKPORT       PTSUNNY   73  69  87 S7        29.84R
KINGSVILLE NAS PTSUNNY   73  69  87 SE6       29.81R
ALICE          PTSUNNY   71  67  87 SE6       29.81R
FALFURRIAS     CLOUDY    71  66  86 E3        29.80R
$$

...VICTORIA AREA OBSERVATIONS...

CITY           SKY/WX    TMP DP  RH WIND       PRES   REMARKS
VICTORIA       MOSUNNY   71  68  90 S10       29.85R
BEEVILLE       FAIR      69  69  99 SE8       29.83R
PLEASANTON     PTSUNNY   68  64  89 SE8       29.81R
SAN ANTONIO    CLOUDY    69  64  84 S12       29.83R
$$

...LAREDO AREA OBSERVATIONS...

CITY           SKY/WX    TMP DP  RH WIND       PRES   REMARKS
LAREDO         CLOUDY    73  66  78 SE12      29.80R
COTULLA        CLOUDY    71  64  78 SE10      29.79R
DEL RIO        SUNNY     68  62  81 E5        29.82R
MCALLEN        MOSUNNY   73  69  87 SE13      29.77R
HEBBRONVILLE   MOSUNNY   68  66  93 E6        29.81S
$$

...OTHER TEXAS OBSERVATIONS...

CITY           SKY/WX    TMP DP  RH WIND       PRES   REMARKS
BROWNSVILLE    MOSUNNY   74  71  91 S16G28    29.78R
HOUSTON        PTSUNNY   71  66  84 S8        29.88R
COL. STATION   PTSUNNY   68  65  90 S13       29.84S
AUSTIN         CLOUDY    67  65  93 S8        29.81S
WACO           PTSUNNY   66  63  90 S13       29.81R
FORT WORTH     PTSUNNY   68  61  78 S20G29    29.77F
WICHITA FALLS  SUNNY     68  62  81 SW15      29.68R
LUBBOCK        MOSUNNY   54  32  43 N23G35    29.94R BLWGDUST
EL PASO        PTCLDY    60  14  16 E3        30.01R
$$

...MARINE OBSERVATIONS...

STATION/POSITION TIME  SKY/WX   TEMP    WIND        PRES    VSBY  WAVE   SWELL
                                AIR SEA DIR/SP/G                  HT/PER HT/PER
                 (UTC)          (F)     (DEG/KT/KT) (MB)    (MI)  (FT/S) (FT/S)
PORT ARANSAS     1300            71 73  150/ 11/ 12 1010.5R
BUOY 90 E PORT A NOT AVBL
BUOY 45 SE BAFFI 1300            72 71  160/ 12/ 14 1009.1R         4/ 6   2/ 6
BUOY 200 E PT IS NOT AVBL
BUOY 15 E GALVES 1300            70 69  160/ 10/ 12 1011.7R         3/ 5
$$


USA.gov is the U.S. government's official web portal to all federal, state and local government web resources and services.